Total_Precipitation_Accumulation
0.20 0.20 0.17 0.14 0.13 0.14 0.17 0.21 0.33 0.49 0.71 0.92 1.15 1.27 1.37 1.43 1.35 1.21 1.16 1.04 0.90 0.86 0.82 0.71 0.68 0.65 0.60 0.56 0.52 0.46 0.42 0.43 0.47 0.48 0.48 0.45 0.42 0.39 0.39 0.37 0.32 0.31 0.29 0.25
0.18 0.18 0.19 0.18 0.17 0.15 0.21 0.27 0.39 0.59 0.87 1.11 1.26 1.29 1.35 1.41 1.33 1.27 1.24 1.22 1.19 1.16 1.11 0.95 0.79 0.70 0.65 0.60 0.56 0.51 0.51 0.53 0.54 0.51 0.48 0.46 0.44 0.41 0.41 0.38 0.32 0.27 0.23 0.19
0.19 0.15 0.24 0.39 0.30 0.24 0.31 0.37 0.50 0.70 0.85 0.99 1.13 1.27 1.28 1.28 1.34 1.39 1.48 1.53 1.48 1.33 1.19 1.04 0.92 0.84 0.78 0.72 0.67 0.65 0.64 0.60 0.54 0.49 0.46 0.43 0.38 0.39 0.37 0.31 0.26 0.23 0.18 0.14
0.22 0.25 0.46 0.48 0.29 0.30 0.43 0.53 0.56 0.62 0.66 0.81 1.01 1.12 1.15 1.21 1.33 1.44 1.47 1.43 1.34 1.20 1.07 1.00 0.99 0.94 0.83 0.75 0.70 0.67 0.64 0.58 0.49 0.41 0.38 0.38 0.38 0.34 0.28 0.24 0.22 0.20 0.16 0.13
0.29 0.40 0.52 0.57 0.35 0.34 0.48 0.62 0.53 0.59 0.59 0.71 0.79 0.90 1.07 1.16 1.25 1.34 1.29 1.22 1.20 1.17 1.09 1.08 1.05 0.95 0.85 0.77 0.68 0.62 0.57 0.46 0.36 0.30 0.29 0.29 0.27 0.24 0.22 0.22 0.21 0.16 0.12 0.12
0.41 0.50 0.63 0.63 0.32 0.27 0.47 0.81 0.63 0.65 0.65 0.66 0.73 0.92 0.98 1.00 0.98 1.01 1.02 1.07 1.15 1.24 1.27 1.21 1.07 0.87 0.76 0.68 0.57 0.48 0.38 0.30 0.25 0.22 0.18 0.16 0.17 0.18 0.19 0.19 0.17 0.12 0.10 0.12
0.55 0.69 0.73 0.36 0.18 0.30 0.67 0.79 0.65 0.64 0.69 0.69 0.75 0.80 0.69 0.70 0.80 0.87 0.94 1.02 1.07 1.12 1.11 1.03 0.91 0.78 0.70 0.59 0.47 0.34 0.25 0.20 0.17 0.13 0.10 0.10 0.14 0.16 0.16 0.14 0.14 0.13 0.13 0.15
0.61 0.75 0.81 0.33 0.22 0.40 0.52 0.45 0.45 0.49 0.54 0.54 0.55 0.58 0.62 0.65 0.70 0.76 0.86 0.93 0.92 0.89 0.85 0.74 0.64 0.60 0.59 0.50 0.34 0.23 0.18 0.16 0.12 0.09 0.05 0.06 0.13 0.16 0.15 0.16 0.16 0.15 0.15 0.15
0.70 0.80 0.59 0.30 0.27 0.31 0.37 0.37 0.36 0.41 0.43 0.46 0.49 0.54 0.64 0.72 0.75 0.74 0.73 0.74 0.70 0.61 0.54 0.49 0.43 0.43 0.43 0.35 0.24 0.19 0.18 0.17 0.13 0.09 0.08 0.07 0.12 0.14 0.14 0.15 0.13 0.11 0.12 0.14
0.60 0.66 0.46 0.31 0.27 0.27 0.28 0.28 0.30 0.39 0.42 0.42 0.43 0.43 0.50 0.57 0.61 0.61 0.57 0.53 0.47 0.40 0.35 0.32 0.28 0.26 0.24 0.20 0.18 0.19 0.21 0.18 0.15 0.15 0.13 0.11 0.11 0.09 0.10 0.10 0.10 0.10 0.12 0.15
0.68 0.66 0.51 0.42 0.32 0.28 0.29 0.30 0.34 0.38 0.38 0.35 0.30 0.29 0.30 0.34 0.37 0.36 0.33 0.31 0.27 0.25 0.22 0.19 0.15 0.14 0.13 0.12 0.14 0.20 0.19 0.15 0.13 0.13 0.13 0.13 0.11 0.05 0.04 0.05 0.03 0.06 0.10 0.12
0.79 0.64 0.51 0.49 0.41 0.34 0.33 0.30 0.27 0.24 0.24 0.27 0.27 0.25 0.26 0.27 0.27 0.26 0.22 0.20 0.18 0.17 0.15 0.12 0.09 0.08 0.07 0.07 0.10 0.18 0.17 0.13 0.10 0.08 0.08 0.09 0.15 0.12 0.03 0.01 0.01 0.02 0.03 0.05
0.49 0.40 0.37 0.37 0.37 0.39 0.31 0.24 0.21 0.17 0.14 0.18 0.21 0.21 0.20 0.21 0.20 0.17 0.16 0.15 0.15 0.14 0.10 0.08 0.06 0.06 0.05 0.05 0.06 0.11 0.14 0.11 0.07 0.06 0.06 0.08 0.13 0.20 0.18 0.10 0.04 0.04 0.03 0.04
0.37 0.39 0.42 0.33 0.27 0.25 0.18 0.16 0.14 0.12 0.10 0.12 0.14 0.15 0.14 0.14 0.12 0.11 0.12 0.10 0.09 0.06 0.04 0.05 0.05 0.05 0.04 0.03 0.04 0.06 0.08 0.05 0.04 0.06 0.06 0.07 0.10 0.12 0.16 0.20 0.22 0.19 0.09 0.04
0.32 0.31 0.29 0.20 0.14 0.14 0.11 0.08 0.08 0.09 0.10 0.11 0.10 0.10 0.09 0.09 0.08 0.07 0.06 0.04 0.04 0.04 0.03 0.03 0.05 0.05 0.03 0.02 0.03 0.05 0.06 0.08 0.07 0.05 0.05 0.05 0.06 0.08 0.09 0.13 0.17 0.19 0.17 0.11
0.22 0.18 0.13 0.11 0.11 0.12 0.10 0.08 0.07 0.07 0.07 0.08 0.08 0.08 0.06 0.05 0.04 0.04 0.04 0.03 0.04 0.05 0.03 0.04 0.05 0.04 0.02 0.02 0.03 0.05 0.04 0.02 0.03 0.03 0.03 0.03 0.04 0.06 0.07 0.10 0.14 0.18 0.18 0.16
0.15 0.14 0.12 0.10 0.09 0.10 0.09 0.07 0.06 0.06 0.05 0.06 0.06 0.04 0.03 0.03 0.03 0.04 0.02 0.02 0.03 0.02 0.02 0.02 0.03 0.02 0.01 0.01 0.02 0.03 0.03 0.01 0.01 0.02 0.03 0.03 0.03 0.04 0.06 0.08 0.13 0.17 0.17 0.14
0.08 0.08 0.08 0.07 0.05 0.05 0.04 0.04 0.04 0.03 0.03 0.03 0.02 0.02 0.02 0.03 0.03 0.02 0.01 0.01 0.01 0.01 0.00 0.00 0.01 0.00 0.00 0.00 0.01 0.01 0.01 0.01 0.01 0.02 0.02 0.01 0.01 0.03 0.05 0.07 0.09 0.12 0.15 0.15
0.05 0.04 0.04 0.03 0.02 0.02 0.02 0.02 0.02 0.01 0.01 0.01 0.02 0.01 0.01 0.01 0.01 0.01 0.00 0.00 0.01 0.02 0.01 0.00 0.00 0.00 0.01 0.01 0.00 0.01 0.00 0.00 0.00 0.01 0.00 0.00 0.01 0.02 0.04 0.05 0.07 0.09 0.11 0.14
0.03 0.02 0.02 0.02 0.02 0.02 0.02 0.01 0.01 0.00 0.01 0.02 0.02 0.01 0.00 0.00 0.00 0.00 0.00 0.00 0.01 0.01 0.00 0.00 0.00 0.00 0.00 0.00 0.00 0.00 0.00 0.00 0.00 0.00 0.00 0.00 0.01 0.01 0.02 0.03 0.05 0.07 0.09 0.13
0.03 0.02 0.01 0.01 0.01 0.01 0.01 0.01 0.01 0.01 0.01 0.02 0.01 0.00 0.00 0.00 0.00 0.00 0.00 0.01 0.01 0.00 0.00 0.00 0.00 0.00 0.00 0.00 0.00 0.00 0.00 0.00 0.00 0.00 0.00 0.00 0.01 0.01 0.01 0.02 0.02 0.04 0.06 0.08
0.03 0.02 0.01 0.01 0.01 0.01 0.01 0.02 0.01 0.01 0.02 0.02 0.01 0.00 0.00 0.00 0.00 0.00 0.00 0.00 0.01 0.00 0.00 0.00 0.00 0.00 0.00 0.00 0.00 0.00 0.00 0.00 0.00 0.00 0.00 0.00 0.00 0.01 0.01 0.01 0.01 0.02 0.03 0.04
0.07 0.04 0.02 0.01 0.01 0.02 0.02 0.02 0.02 0.02 0.02 0.01 0.00 0.00 0.00 0.00 0.00 0.00 0.00 0.00 0.00 0.00 0.00 0.00 0.00 0.00 0.00 0.00 0.00 0.00 0.00 0.00 0.00 0.00 0.00 0.00 0.00 0.00 0.00 0.00 0.01 0.01 0.01 0.02
0.09 0.06 0.04 0.03 0.02 0.03 0.03 0.02 0.03 0.03 0.01 0.01 0.00 0.00 0.00 0.00 0.00 0.00 0.00 0.00 0.00 0.00 0.00 0.00 0.00 0.00 0.00 0.00 0.00 0.00 0.00 0.00 0.00 0.00 0.00 0.00 0.00 0.00 0.00 0.00 0.00 0.00 0.01 0.01
0.11 0.08 0.06 0.05 0.06 0.05 0.04 0.03 0.03 0.02 0.01 0.00 0.00 0.00 0.00 0.00 0.00 0.00 0.00 0.00 0.00 0.00 0.00 0.00 0.00 0.00 0.00 0.00 0.00 0.00 0.00 0.00 0.00 0.00 0.00 0.00 0.00 0.00 0.00 0.00 0.00 0.00 0.00 0.00
0.16 0.14 0.11 0.09 0.08 0.06 0.03 0.03 0.03 0.01 0.00 0.00 0.00 0.00 0.00 0.00 0.00 0.00 0.00 0.00 0.00 0.00 0.00 0.00 0.00 0.00 0.00 0.00 0.00 0.00 0.00 0.00 0.00 0.00 0.00 0.00 0.00 0.00 0.00 0.00 0.00 0.00 0.00 0.00
0.22 0.16 0.13 0.09 0.07 0.03 0.02 0.02 0.01 0.00 0.00 0.00 0.00 0.00 0.00 0.00 0.00 0.00 0.00 0.00 0.00 0.00 0.00 0.00 0.00 0.00 0.00 0.00 0.00 0.00 0.00 0.00 0.00 0.00 0.00 0.00 0.00 0.00 0.00 0.00 0.00 0.00 0.00 0.00